Krabi, Thailand

1:42 PM ICT on February 14, 2016 (GMT +0700)
Ao Nang, Krabi | | Change Station
CLOSE
Current Station
Personal Weather Station
Location: Ao Nang, Krabi
Elevation: 177 ft
Nearby Weather Stations

Elev 177 ft 8.05 °N, 98.84 °E | Updated 2 minutes ago

Scattered Clouds
Scattered Clouds
93.1 °F
Feels Like 103 °F
N
5.0
Wind Variable Wind from ENE
Gusts 5.0 mph

Today
High -- | Low -- °F
--% Chance of Precip.
Yesterday
High -- | Low -- °F
Precip. -- in
Pressure 29.86 in
Visibility 6.2 miles
Clouds Few 1800 ft
Scattered Clouds 30000 ft
Heat Index 103 °F
Dew Point 73 °F
Humidity 53%
Rainfall 0.00 in
Snow Depth Not available.
6:42 AM 6:34 PM
Waxing Crescent, 38% visible
METAR VTSP 140630Z 09010KT 9999 FEW018 SCT300 32/22 Q1011 A2985 NOSIG
Pressure 29.86 in
Visibility 6.2 miles
Clouds Few 1800 ft
Scattered Clouds 30000 ft
Heat Index 103 °F
Dew Point 73 °F
Humidity 53%
Rainfall 0.00 in
Snow Depth Not available.
6:42 AM 6:34 PM
Waxing Crescent, 38% visible
METAR VTSP 140630Z 09010KT 9999 FEW018 SCT300 32/22 Q1011 A2985 NOSIG

10-Day Weather Forecast

No radar image for this location.
×

Almanac

Astronomy

Feb. 14, 2016 Rise Set
Actual Time
Civil Twilight
Nautical Twilight
Astronomical Twilight
Moon
Length of Visible Light
Length of Day
Tomorrow will be .
, % of the Moon is Illuminated

Today's Extremes

Country Highs Country Lows

Community

WunderPhotos

Upload Photos

1,892,757 photos uploaded!

WunderBlog® & News

Nearby

Air Quality

  Air Quality AQ Index Pollutant
Not available.

Snow Depth

Station Depth Elevation

Earthquake Activity

City Distance Mag. Time & Date
Minimum magnitude displayed is 2.5.

Coastal Water Temperatures

Place Temperature

Stations

Nearby Weather Stations

Station Location Temp. Windchill Dew Point Humidity Wind Precip. Elev Updated Type